Temp
15 15 15 16 16 16 17 17 18 19 20 21 21 22 22 23 23 24 24 25 26 25 24 24 22 22 20 20 21 21 26 27 27 26 27 24 24 22 21 20 21 20 19 19 16
15 15 15 16 16 16 16 17 17 18 18 19 20 21 21 22 23 24 25 26 25 25 24 24 23 22 20 22 22 24 26 27 28 28 27 25 25 23 22 22 21 19 18 19 17
14 15 15 15 16 16 16 17 17 17 18 18 19 20 20 21 22 24 24 25 25 24 24 24 24 22 23 23 24 24 27 27 28 28 26 25 24 23 23 23 21 20 18 17 17
14 14 15 15 15 16 16 17 17 17 18 18 19 19 19 20 23 24 24 24 24 23 23 22 22 23 25 26 25 26 26 27 28 26 25 25 24 24 23 24 22 20 19 18 18
14 14 14 15 15 16 16 16 17 18 18 18 18 18 18 18 21 24 24 24 23 23 23 22 22 24 26 26 26 26 28 28 27 25 26 24 25 25 23 22 21 19 18 18 18
13 14 14 15 15 16 16 16 17 18 18 18 18 18 17 17 23 23 24 24 24 24 23 23 24 24 26 26 27 27 27 26 26 25 24 25 24 24 23 21 20 19 19 18 18
13 14 14 14 15 16 16 16 18 18 19 19 19 18 17 21 23 23 23 24 24 24 24 24 24 24 24 27 26 27 27 27 26 25 25 25 24 25 22 21 20 19 19 18 18
12 13 14 14 15 16 16 17 17 18 18 18 18 17 17 22 22 22 22 22 23 23 23 24 24 23 24 25 26 28 28 29 26 26 24 27 27 26 21 21 20 19 19 18 18
12 12 13 14 14 15 16 16 17 16 16 17 17 16 17 21 21 22 22 23 22 22 22 23 23 23 24 26 28 27 29 28 26 27 25 26 27 24 21 22 21 20 19 19 19
12 12 13 13 14 14 15 16 16 15 14 15 14 15 19 20 20 21 22 22 22 22 21 22 22 25 24 26 28 29 28 29 28 27 27 26 26 23 21 22 22 21 20 20 20
11 12 13 13 14 13 15 15 14 13 14 14 14 15 18 19 20 21 21 21 22 22 23 22 24 24 26 27 28 30 29 29 29 28 27 28 27 24 22 22 22 21 21 20 20
10 11 12 13 13 13 13 13 9 8 8 14 16 15 18 18 17 20 21 22 22 24 23 22 24 26 25 26 27 28 29 29 30 28 29 27 27 25 23 23 23 22 22 21 21
10 11 11 12 13 13 12 11 10 10 9 13 15 14 17 18 18 20 20 21 23 23 24 24 26 25 24 25 26 28 30 28 30 28 28 28 28 25 24 23 23 22 22 22 22
10 10 11 11 12 11 11 11 11 11 13 17 16 16 16 18 18 20 22 22 23 24 24 25 25 24 24 26 27 28 28 29 29 29 29 29 29 26 27 24 24 23 23 22 22
10 10 10 10 10 10 11 12 11 11 15 20 18 18 17 19 21 20 21 22 24 23 24 24 24 24 25 26 27 29 28 29 28 28 28 27 29 31 26 26 25 24 24 23 23
9 9 9 10 9 10 11 12 12 15 14 18 19 18 19 19 20 19 21 23 23 24 25 25 23 25 26 27 27 26 27 26 26 28 28 29 29 31 30 29 30 27 24 24 24
8 9 9 8 9 10 11 12 14 14 17 17 15 16 17 19 21 21 22 22 24 23 23 24 24 25 26 25 26 27 28 27 26 27 28 27 28 30 31 30 30 30 26 25 24
8 9 8 7 9 10 11 13 12 15 16 16 15 16 17 19 20 22 22 23 25 25 24 23 23 24 26 27 26 27 29 29 26 27 28 25 28 31 31 31 30 30 29 26 25
7 9 7 7 9 10 10 11 13 13 14 13 16 16 17 18 17 20 22 23 24 25 24 24 24 27 25 27 28 27 26 30 29 24 29 30 30 30 31 32 30 30 28 27 26
6 7 7 7 8 8 10 10 11 11 13 13 14 14 14 15 17 18 22 24 24 25 27 25 24 25 26 26 26 27 28 26 26 26 27 28 28 31 31 32 32 33 30 28 27
6 6 6 7 7 7 9 9 8 10 11 12 13 13 14 14 15 17 19 21 25 24 25 24 26 24 26 25 26 25 26 27 29 28 29 28 30 31 31 31 32 34 31 29 27
4 7 6 6 7 5 6 5 5 9 10 12 13 13 13 14 15 16 17 19 18 21 23 25 25 24 25 27 28 28 28 28 28 25 27 29 31 31 32 33 30 31 30 27 27
1 2 5 5 6 5 6 6 6 7 9 10 12 13 13 13 13 15 17 18 17 19 23 24 25 24 23 24 24 27 26 27 29 28 27 28 30 31 30 31 29 30 30 28 26
2 4 4 3 3 4 4 5 6 7 8 9 10 11 11 13 14 15 16 17 16 17 16 17 24 25 25 25 26 25 26 26 28 28 28 29 31 31 31 31 31 29 28 28 28
2 3 1 2 4 3 3 5 4 5 6 7 10 10 10 11 12 14 14 15 18 15 17 19 23 24 26 26 26 26 26 26 27 28 28 30 28 31 31 31 31 29 29 28 29
2 2 1 1 1 3 4 2 3 3 3 7 8 8 9 11 11 11 11 13 14 15 16 17 22 24 25 26 27 26 27 27 27 28 28 29 29 30 31 29 29 32 29 32 31
1 1 0 2 2 3 4 4 3 3 5 4 6 6 9 11 9 9 9 10 12 11 14 16 19 22 23 25 26 25 26 27 27 28 28 27 29 30 29 29 29 31 30 33 34
Height
1532 1529 1526 1524 1521 1519 1517 1515 1513 1511 1510 1509 1507 1506 1505 1503 1503 1500 1499 1502 1502 1502 1504 1505 1507 1508 1509 1510 1510 1511 1509 1509 1505 1506 1504 1509 1512 1519 1521 1523 1526 1529 1530 1534 1537
1531 1528 1525 1522 1520 1517 1514 1512 1510 1508 1506 1505 1504 1503 1502 1500 1498 1496 1495 1495 1496 1498 1500 1503 1504 1506 1509 1509 1509 1509 1508 1503 1498 1497 1500 1506 1510 1516 1520 1523 1526 1528 1530 1532 1537
1529 1526 1523 1521 1518 1515 1513 1510 1507 1504 1502 1501 1500 1499 1498 1498 1497 1492 1491 1490 1492 1496 1499 1502 1504 1507 1507 1507 1506 1506 1502 1498 1497 1497 1500 1505 1511 1515 1517 1521 1523 1525 1527 1531 1536
1528 1525 1522 1519 1515 1512 1509 1506 1503 1501 1499 1497 1496 1495 1495 1496 1498 1490 1490 1490 1492 1494 1497 1499 1502 1506 1505 1502 1502 1503 1497 1497 1496 1497 1500 1504 1509 1512 1515 1517 1520 1524 1527 1528 1533
1527 1524 1520 1516 1512 1509 1505 1502 1499 1496 1495 1493 1491 1492 1492 1492 1487 1489 1489 1489 1491 1494 1496 1498 1500 1502 1500 1500 1500 1500 1494 1494 1494 1497 1500 1504 1508 1511 1515 1516 1518 1522 1530 1533 1536
1526 1522 1518 1514 1509 1505 1501 1497 1494 1491 1489 1488 1487 1488 1489 1490 1482 1482 1485 1486 1488 1491 1493 1495 1498 1499 1499 1497 1497 1496 1495 1492 1494 1498 1502 1505 1511 1511 1516 1516 1519 1522 1527 1533 1538
1525 1521 1516 1512 1507 1502 1497 1492 1489 1486 1484 1482 1482 1483 1483 1476 1478 1479 1479 1481 1484 1487 1490 1493 1496 1498 1497 1496 1494 1495 1494 1492 1497 1498 1503 1507 1513 1510 1514 1517 1521 1525 1528 1532 1537
1523 1519 1514 1509 1504 1498 1493 1488 1484 1481 1479 1477 1477 1478 1474 1469 1470 1475 1478 1479 1481 1486 1489 1492 1495 1497 1497 1496 1494 1492 1493 1494 1498 1499 1505 1504 1507 1508 1513 1516 1520 1524 1529 1532 1535
1522 1517 1511 1506 1501 1496 1490 1485 1481 1478 1476 1475 1475 1476 1469 1464 1464 1468 1473 1478 1482 1485 1489 1491 1494 1495 1496 1495 1494 1493 1494 1494 1501 1497 1501 1503 1504 1507 1513 1516 1518 1522 1526 1528 1534
1521 1515 1510 1505 1499 1493 1488 1483 1478 1476 1475 1474 1474 1478 1465 1463 1462 1463 1466 1473 1478 1482 1489 1491 1492 1491 1493 1492 1495 1491 1494 1490 1492 1494 1497 1502 1505 1510 1513 1515 1517 1521 1524 1526 1529
1518 1513 1508 1503 1497 1492 1487 1483 1482 1478 1475 1473 1472 1467 1462 1461 1461 1461 1462 1467 1475 1480 1480 1486 1487 1486 1482 1481 1479 1478 1484 1486 1485 1488 1495 1496 1500 1506 1511 1515 1515 1517 1520 1522 1524
1517 1510 1505 1501 1496 1493 1489 1486 1490 1492 1475 1465 1461 1459 1458 1461 1462 1459 1461 1465 1469 1471 1477 1485 1482 1477 1482 1484 1484 1482 1484 1486 1482 1487 1491 1496 1496 1500 1504 1504 1508 1511 1514 1517 1521
1516 1510 1503 1499 1495 1492 1489 1489 1489 1486 1481 1454 1447 1447 1447 1454 1454 1453 1457 1459 1460 1465 1467 1470 1467 1477 1481 1482 1485 1481 1479 1486 1481 1487 1490 1493 1495 1498 1498 1502 1506 1507 1510 1513 1514
1515 1508 1502 1496 1496 1493 1490 1489 1486 1484 1476 1450 1444 1441 1442 1445 1445 1445 1450 1454 1458 1459 1464 1468 1468 1470 1476 1478 1477 1480 1477 1478 1481 1486 1497 1488 1503 1493 1489 1494 1496 1500 1502 1505 1508
1513 1507 1501 1497 1495 1493 1491 1487 1484 1483 1480 1443 1441 1441 1441 1441 1437 1434 1440 1449 1448 1451 1457 1460 1462 1469 1472 1467 1471 1472 1472 1477 1482 1486 1489 1495 1497 1477 1485 1487 1484 1487 1492 1495 1500
1510 1504 1499 1495 1493 1492 1487 1486 1485 1484 1481 1447 1443 1444 1442 1440 1435 1435 1436 1443 1446 1449 1451 1454 1458 1461 1461 1464 1468 1471 1476 1484 1487 1486 1501 1487 1489 1476 1475 1472 1468 1477 1482 1486 1491
1507 1501 1496 1493 1491 1489 1485 1485 1486 1479 1460 1454 1453 1451 1447 1438 1431 1430 1429 1432 1435 1453 1456 1455 1456 1455 1458 1465 1468 1469 1472 1497 1507 1505 1499 1487 1492 1472 1461 1464 1463 1465 1470 1473 1480
1505 1499 1495 1493 1490 1487 1486 1484 1488 1465 1459 1455 1456 1451 1446 1435 1428 1425 1427 1428 1425 1427 1442 1453 1467 1450 1447 1451 1458 1463 1460 1474 1505 1502 1491 1495 1487 1465 1457 1457 1457 1459 1462 1466 1471
1502 1496 1493 1491 1489 1487 1487 1483 1468 1465 1463 1463 1454 1451 1443 1438 1439 1427 1421 1418 1415 1415 1430 1443 1448 1437 1444 1445 1448 1460 1469 1455 1470 1491 1481 1472 1466 1455 1452 1452 1454 1454 1457 1459 1462
1500 1493 1493 1490 1486 1486 1484 1480 1473 1469 1467 1465 1460 1460 1458 1446 1440 1433 1418 1409 1414 1415 1416 1425 1444 1434 1439 1445 1448 1449 1452 1472 1474 1492 1494 1479 1476 1465 1452 1448 1448 1448 1451 1453 1456
1499 1493 1492 1489 1486 1486 1481 1479 1477 1472 1471 1467 1461 1460 1456 1454 1446 1437 1422 1415 1408 1416 1418 1421 1424 1437 1433 1435 1440 1452 1454 1454 1451 1460 1474 1483 1467 1444 1446 1446 1445 1443 1447 1447 1448
1500 1497 1492 1488 1487 1489 1485 1488 1484 1473 1469 1465 1461 1458 1456 1455 1448 1442 1432 1423 1423 1419 1417 1415 1420 1433 1434 1428 1431 1433 1438 1441 1455 1478 1465 1461 1453 1436 1439 1440 1443 1444 1441 1439 1440
1502 1498 1494 1490 1489 1490 1489 1483 1480 1476 1469 1464 1458 1455 1453 1453 1454 1441 1432 1426 1426 1422 1412 1412 1415 1435 1442 1437 1435 1430 1435 1437 1436 1444 1461 1468 1447 1436 1439 1439 1440 1441 1440 1438 1439
1504 1499 1496 1495 1496 1496 1491 1481 1476 1472 1468 1466 1460 1455 1454 1450 1447 1439 1434 1428 1428 1425 1423 1420 1412 1414 1423 1420 1422 1433 1432 1437 1433 1446 1448 1444 1438 1437 1437 1437 1438 1440 1441 1442 1441
1507 1505 1505 1500 1495 1496 1494 1484 1480 1474 1468 1464 1459 1458 1457 1452 1446 1442 1439 1435 1425 1426 1421 1417 1411 1411 1408 1412 1416 1421 1428 1433 1436 1434 1443 1434 1444 1432 1432 1433 1434 1436 1438 1440 1440
1508 1507 1505 1502 1498 1494 1486 1482 1481 1477 1476 1463 1461 1462 1457 1450 1448 1448 1448 1440 1434 1427 1422 1419 1411 1411 1414 1412 1413 1420 1419 1423 1426 1430 1435 1433 1433 1429 1429 1432 1434 1432 1434 1435 1436
1506 1506 1505 1500 1496 1493 1484 1483 1482 1480 1472 1470 1468 1464 1453 1449 1451 1448 1449 1445 1441 1442 1432 1425 1416 1414 1420 1416 1417 1425 1416 1419 1423 1423 1426 1436 1424 1426 1427 1429 1430 1429 1430 1430 1430
Wind_Speed
18 18 19 19 20 20 20 20 20 20 21 21 21 21 21 22 20 23 22 13 11 11 13 14 12 9 8 4 3 2 2 2 3 8 5 12 7 6 7 17 6 14 8 20 30
19 19 20 20 20 21 21 22 21 21 20 20 20 21 21 22 22 23 19 15 16 15 19 18 14 11 4 3 3 5 2 2 4 6 7 15 11 11 8 18 8 9 12 29 32
21 21 21 22 22 22 22 22 22 22 21 20 20 19 18 18 19 5 11 5 10 16 16 13 13 11 5 4 6 4 4 3 6 8 13 17 12 9 13 11 13 19 27 35 31
21 22 23 23 24 24 24 24 23 22 22 21 20 18 16 12 5 9 11 6 10 15 17 16 16 8 5 6 6 4 12 11 4 9 15 17 14 8 14 2 13 19 34 37 34
24 24 25 25 25 25 25 25 25 23 22 22 20 17 15 9 20 7 11 8 9 5 20 17 17 8 5 5 5 8 7 7 13 13 13 17 12 4 13 2 16 23 32 30 29
27 27 27 27 27 27 26 27 25 24 22 20 19 17 14 8 14 17 26 25 21 11 22 22 13 11 3 4 6 1 5 4 12 13 15 13 7 5 10 8 20 28 33 29 27
29 29 29 29 29 29 28 27 25 24 21 18 17 17 17 26 10 7 12 16 14 14 18 24 12 8 4 4 6 1 3 8 13 16 6 14 5 10 11 15 21 25 29 28 26
31 32 31 31 31 31 29 27 24 21 17 15 12 15 13 12 19 26 9 11 14 15 7 17 17 8 4 5 2 3 3 5 8 15 10 13 4 11 16 21 21 25 27 26 26
31 33 34 34 33 31 27 25 21 17 14 9 4 10 10 11 16 20 27 24 12 14 9 9 10 6 3 5 3 2 5 6 9 16 8 13 4 9 17 19 20 24 27 27 24
31 33 33 33 33 31 26 22 16 14 9 8 5 5 10 1 1 5 17 23 19 21 10 5 5 5 4 9 11 11 6 9 9 13 12 13 8 9 17 18 20 22 25 26 27
33 35 33 32 32 21 26 14 9 3 8 8 7 12 13 7 5 5 9 26 14 14 11 12 9 15 18 19 5 10 9 14 10 11 15 15 11 10 18 18 19 22 25 27 29
34 34 35 32 29 19 22 9 10 11 15 28 30 31 33 21 8 9 11 14 17 14 12 7 18 18 9 10 10 9 10 11 7 11 13 10 14 11 20 25 26 26 27 28 28
32 34 35 33 20 24 14 9 15 20 7 16 18 15 21 29 15 13 20 11 18 18 23 18 12 15 12 12 13 11 13 9 11 8 3 7 11 9 14 20 22 25 26 26 30
31 32 33 33 13 24 6 19 16 13 5 6 4 4 8 13 11 32 22 13 8 23 21 14 10 20 16 20 17 17 10 8 11 13 11 9 9 7 13 18 19 27 29 30 30
31 31 30 27 20 19 21 18 9 2 6 4 2 0 4 13 2 18 34 16 15 14 12 16 19 15 21 25 20 14 12 11 7 7 6 7 6 4 6 13 20 28 32 34 32
29 29 28 22 17 19 19 13 2 2 8 6 5 6 2 12 4 5 21 18 8 9 14 13 5 17 19 16 18 13 11 6 4 4 9 9 8 11 7 10 10 21 32 35 36
29 27 22 13 18 17 15 5 3 5 8 7 9 12 13 7 8 7 19 22 16 16 16 14 12 11 17 16 15 11 16 7 7 7 9 7 8 16 7 7 12 10 28 35 38
29 26 8 13 16 16 11 1 7 5 10 8 11 18 8 6 7 12 15 24 21 15 16 18 17 15 17 16 15 22 19 10 11 9 11 4 9 11 5 7 14 14 16 23 31
31 24 1 16 17 13 2 4 5 6 3 8 13 9 5 4 7 6 16 25 25 23 14 16 15 19 9 11 17 22 11 8 7 2 9 10 10 10 12 12 7 9 11 19 27
33 18 6 20 20 7 3 5 5 3 4 2 8 3 6 11 8 9 12 16 27 25 15 11 10 13 24 17 13 15 18 11 4 11 12 8 7 10 5 6 4 8 7 14 21
24 8 9 19 11 1 4 4 6 11 8 4 5 5 5 10 9 6 3 5 24 21 17 13 11 11 20 18 20 9 15 7 11 7 13 11 11 8 11 8 11 12 10 11 18
16 4 12 17 1 2 2 6 9 11 10 11 9 10 11 10 8 5 5 5 15 7 18 13 8 9 16 23 14 18 15 20 12 9 7 8 15 7 9 7 6 9 14 11 13
11 6 9 13 3 5 9 9 7 6 6 5 5 4 2 4 5 8 5 4 13 9 11 14 9 9 10 8 9 24 14 11 10 9 16 15 17 6 4 7 6 4 9 11 8
7 4 6 6 3 7 10 10 6 7 14 8 7 3 2 6 9 9 8 7 18 9 12 3 9 19 13 17 11 21 21 13 15 12 15 21 17 7 9 8 5 9 5 4 6
4 2 2 4 5 13 7 9 10 4 6 5 3 8 5 3 3 5 5 8 6 10 5 3 18 12 14 7 17 17 21 19 20 17 15 17 15 14 10 7 9 10 5 5 3
3 3 2 10 9 9 7 3 5 6 3 5 7 16 11 3 2 4 8 3 3 9 7 6 8 17 17 14 13 17 18 21 22 21 20 18 17 12 15 9 13 25 13 17 9
4 6 4 7 5 5 4 7 11 15 6 8 12 17 9 2 15 21 19 22 16 7 5 6 2 12 20 14 17 16 17 18 17 17 19 17 18 8 8 10 15 21 16 19 17
Wind_Direction
358 353 349 344 339 334 330 324 318 310 301 297 293 291 292 291 292 293 293 291 260 230 195 190 175 175 165 209 198 178 236 279 198 178 178 160 145 133 129 144 159 173 155 165 161
356 352 348 344 340 336 331 327 322 315 310 303 295 290 291 292 295 289 291 263 242 218 205 202 194 176 195 214 198 218 243 237 231 209 178 168 167 148 143 154 146 156 147 164 162
355 352 347 344 340 336 332 327 322 317 310 305 301 296 291 296 310 264 111 168 206 198 212 216 205 175 208 206 189 176 239 205 253 227 168 156 163 161 149 189 183 175 161 162 166
354 350 347 344 339 335 332 327 321 315 309 302 297 295 293 288 262 181 179 89 87 186 189 182 176 181 210 215 197 230 244 245 250 169 158 160 158 161 170 145 189 176 168 165 171
357 353 350 346 341 335 330 324 319 314 308 301 293 289 285 260 242 218 205 226 292 193 195 184 175 179 209 208 190 237 288 292 231 171 162 152 171 158 186 348 162 160 167 172 175
358 353 351 348 343 337 333 325 318 315 309 297 286 278 266 249 261 247 245 254 262 221 196 187 198 211 243 234 227 173 307 1 154 151 146 154 158 153 192 136 154 163 171 177 184
358 353 350 349 344 340 336 328 321 315 312 298 278 260 252 248 247 230 219 226 230 208 194 197 198 195 194 253 268 294 143 96 149 146 136 147 158 215 170 158 160 171 176 180 188
355 351 348 348 344 342 338 330 326 319 317 305 274 237 246 263 233 228 183 155 163 173 171 205 211 238 245 301 255 190 187 177 171 171 156 185 229 191 169 163 168 176 182 187 193
352 349 347 346 344 344 340 334 327 319 321 323 236 205 258 252 246 232 219 212 186 156 156 175 184 201 201 226 186 203 195 187 164 195 157 199 262 174 174 177 172 182 189 190 198
349 346 345 346 344 347 343 339 320 309 305 296 259 231 248 232 241 211 209 211 208 220 202 173 154 194 184 194 193 188 200 202 185 191 195 203 224 162 184 187 184 189 193 196 200
353 348 346 347 348 355 3 355 353 321 315 268 268 261 294 251 266 213 185 180 181 162 172 185 190 202 196 201 236 191 200 203 195 177 193 224 234 190 188 202 196 196 202 204 208
351 348 343 346 349 356 359 47 43 329 300 291 279 260 256 253 309 209 182 159 177 182 155 158 212 207 216 213 224 195 187 209 202 165 204 201 227 203 191 206 204 202 207 211 211
348 346 340 344 350 358 3 23 346 337 259 290 254 243 243 229 224 222 181 173 186 179 189 198 206 198 207 204 205 202 197 184 214 154 179 182 232 205 210 214 212 215 217 217 215
346 344 339 342 347 355 8 331 324 333 285 273 238 267 196 192 230 219 200 171 181 196 186 211 186 188 195 212 203 207 194 175 167 180 215 207 262 220 206 211 216 215 214 217 217
342 340 337 339 333 348 332 329 322 58 302 44 127 106 195 198 355 198 199 195 188 171 182 191 191 184 197 205 195 216 167 180 166 162 184 182 238 253 192 225 223 219 217 217 216
341 334 335 333 333 340 338 329 176 192 249 319 22 12 346 232 267 120 183 192 177 160 205 189 201 183 203 203 195 140 124 87 88 189 222 197 229 266 224 225 234 219 219 217 215
346 339 338 334 335 339 340 335 223 208 319 337 337 336 319 261 224 206 188 183 176 175 186 190 177 189 186 188 197 193 168 163 199 207 223 188 210 244 239 247 244 225 213 216 215
346 343 324 345 342 337 341 163 236 214 233 331 334 317 277 338 234 203 198 195 196 188 171 186 203 183 189 198 185 200 191 193 194 198 209 147 221 232 254 261 252 242 231 217 213
347 345 253 340 336 336 337 232 235 224 284 320 334 307 295 342 356 283 210 208 194 184 172 188 209 194 182 186 180 187 205 198 195 49 208 200 241 277 254 255 243 251 233 221 213
348 347 19 349 340 327 214 251 267 283 344 326 264 331 318 336 321 337 194 208 202 201 194 187 195 197 192 190 192 196 180 185 222 194 213 198 239 235 197 209 257 281 233 231 222
351 347 344 348 342 26 261 284 306 309 306 274 236 279 273 317 320 300 307 20 198 195 208 168 211 166 185 199 183 168 191 215 197 226 212 223 235 212 230 250 270 283 298 266 226
353 319 339 355 303 41 314 318 314 292 297 261 252 255 271 290 291 285 313 11 359 275 203 184 191 198 192 197 210 200 192 194 196 188 225 240 245 178 223 240 263 280 314 314 221
334 294 349 14 34 360 327 299 267 282 312 298 270 240 219 251 284 274 280 328 5 355 214 187 204 174 184 181 201 204 187 192 210 179 201 216 241 158 232 258 245 263 342 341 190
342 326 339 27 30 359 332 302 297 289 279 277 292 325 301 242 236 274 299 315 332 334 320 252 194 211 204 204 171 197 196 203 200 204 194 220 237 218 217 234 226 214 335 350 222
349 355 1 313 331 324 297 279 282 294 296 301 204 22 332 256 257 254 314 312 293 359 348 265 209 199 205 170 189 182 194 199 213 219 213 209 220 217 209 231 282 294 299 304 212
319 335 311 295 297 303 299 309 308 347 290 314 349 331 328 256 48 322 345 281 339 328 351 356 202 203 215 197 196 202 196 196 209 213 227 239 236 233 247 273 281 280 283 294 282
286 285 284 288 291 296 294 331 314 319 282 262 318 323 307 41 314 288 273 264 271 303 314 346 198 183 214 199 216 229 201 198 202 209 208 215 230 214 230 232 245 257 263 275 292